Погода в Злобине

Россия / Липецкая область     52°47′04″N   38°14′18″E
темп.,
°C
ветер,
м/с
пор.,
м/с
влажн.,
%
обл.,
%
осадки,
мм/ч
давл.,
гПа
погр.,
м
5 марта, пт
пт500:00−1зсз4997100 0.5 1002614
03:00−3зсз51194100 0.6 1004395
06:00−3ссз4791100 0.1 1006359
09:00−6сз369588 0.1 1009159
12:00−3зсз34933 0.0 1011276
15:00−3зсз35904 0.0 1012397
18:00−5з239226 0.0 101321
21:00−7з239334 0.0 101521
6 марта, сб
сб600:00−8зсз2294100 0.0 101621
03:00−9сз1293100 0.0 101721
06:00−9сз1293100 0.0 101621
09:00−7зсз2296100 0.3 1017124
12:00−6сз359387 0.1 1017284
15:00−5сз579190 0.1 1017627
18:00−8сз489074 0.1 1017157
21:00−11зсз348837 0.1 101950
7 марта, вс
вс700:00−12з47890 0.0 101993
03:00−12зюз47900 0.0 1018128
06:00−12юз512910 0.0 1016240
09:00−8юз8168735 0.0 1012618
12:00−4юз111880100 0.0 1008974
15:00−3юз122093100 0.9 10021323
18:00−3зсз121786100 1.8 10011139
21:00−8з5137783 1.8 1004288
8 марта, пн
пн800:00−10зюз510810 0.0 1004155
03:00−10юз615810 0.0 1002290
06:00−5зюз8159089 0.1 999897
09:00−9з8148075 0.1 1002747
12:00−8з7128744 0.0 1004735
15:00−7зсз7108872 0.1 10061032
18:00−7з61289100 0.4 1008839
21:00−10з6138877 0.4 1010302
9 марта, вт
вт900:00−11з511948 0.0 1011246
03:00−13зсз489631 0.0 1013165
06:00−14зсз369661 0.0 1015111
09:00−12сз469475 0.1 1016292
12:00−11сз468999 0.1 1018547
15:00−11сз5788100 0.1 1019625
18:00−13зсз4693100 0.0 1020135
21:00−16зсз349058 0.0 102259